Dewpoint
32 29 26 25 25 24 21 19 16 16 17 20 21 20 21 20 22 22 23 23 21 25 30 37 41 41 45 48 52 58 60 60 60 58 56 54 53 53 52 51 50 50 50 49
30 28 25 24 23 23 21 19 18 19 20 22 21 18 18 19 19 19 21 22 26 27 33 39 43 47 48 49 51 55 59 60 59 57 55 54 52 51 50 49 49 48 49 48
27 22 24 24 22 22 20 19 20 20 20 19 18 15 15 17 18 20 23 27 31 33 36 39 43 48 50 52 53 54 55 59 57 55 52 50 49 49 48 47 47 48 48 48
23 25 24 22 20 21 20 19 20 17 17 16 17 14 16 15 16 19 28 31 34 37 38 41 43 46 49 52 54 54 55 55 54 51 50 49 47 46 45 46 45 45 45 45
22 23 23 22 21 17 18 18 18 17 17 17 17 15 15 14 12 14 29 34 37 39 40 41 43 45 47 49 51 52 52 52 51 51 49 47 46 44 43 43 42 42 43 42
22 22 21 19 18 16 17 17 18 18 17 14 16 13 11 11 13 17 31 34 37 40 42 41 44 44 44 47 50 50 50 49 49 50 48 46 44 42 42 42 42 42 42 42
27 24 23 22 20 20 18 18 17 17 16 15 15 12 12 13 16 18 27 33 34 34 38 39 39 39 41 43 46 49 49 49 49 49 48 48 46 45 43 43 43 42 42 43
23 23 23 22 20 20 19 19 18 16 16 16 16 14 15 18 24 27 29 33 31 31 32 32 34 36 38 42 43 45 47 48 49 49 48 48 47 47 46 46 45 44 44 43
26 25 20 18 18 18 19 18 19 17 17 16 16 16 16 24 26 29 30 31 30 29 29 28 26 26 26 27 39 44 45 45 46 47 48 48 49 48 47 47 47 46 44 42
25 24 25 24 18 17 17 20 18 17 15 14 15 15 15 21 23 28 31 31 31 29 26 24 23 24 25 28 29 42 44 45 45 47 47 46 47 48 48 48 45 44 43 43
23 24 25 23 19 20 19 16 17 17 17 16 16 17 21 22 24 25 27 27 25 22 21 22 23 24 26 28 30 35 41 42 44 45 47 48 50 49 48 47 46 44 43 43
27 28 26 26 26 24 19 18 18 17 16 17 18 21 22 23 23 24 23 22 22 19 21 21 22 24 27 31 33 35 36 40 43 46 47 49 51 49 49 48 45 43 42 41
30 27 23 24 26 24 19 18 18 18 19 18 19 22 22 22 22 22 22 19 17 20 20 20 23 24 29 34 36 37 37 39 41 43 46 48 49 49 49 48 46 42 40 40
29 29 27 26 27 32 27 22 20 19 19 20 21 22 22 22 22 21 17 16 19 21 20 18 20 24 36 35 34 36 36 38 40 41 44 45 47 49 48 47 46 42 39 38
32 31 30 28 27 28 27 27 26 21 18 18 22 21 21 22 20 16 15 19 20 19 18 19 21 25 30 31 33 36 37 38 40 40 40 42 46 48 48 47 46 44 42 38
38 30 30 29 30 28 27 26 26 27 26 22 22 23 24 20 16 14 17 18 18 21 23 24 23 28 29 29 31 31 31 31 35 38 40 40 42 44 48 47 46 44 43 41
35 32 30 26 25 26 26 25 23 22 21 21 21 22 17 13 13 16 20 22 22 23 29 31 31 30 29 30 29 29 31 32 31 34 38 39 39 42 46 46 45 44 42 41
33 32 32 26 24 19 21 20 17 18 20 18 15 15 15 16 22 22 24 25 30 31 32 31 32 33 30 29 29 33 34 35 36 33 36 39 41 41 42 44 45 44 41 40
36 33 29 24 21 19 17 17 16 15 13 14 15 18 19 23 23 22 24 32 32 33 34 36 34 33 30 29 32 33 33 35 36 36 37 40 41 41 42 43 43 42 41 39
35 34 31 28 21 15 18 21 22 21 15 15 19 24 23 21 18 17 27 30 32 33 35 36 35 35 36 30 34 34 40 40 39 41 42 41 42 42 41 40 40 39 38 37
29 29 26 25 24 21 18 23 24 17 13 22 22 21 20 19 20 22 27 27 27 30 33 36 37 35 39 31 34 40 40 39 40 42 42 41 41 40 38 37 37 36 35 33
25 26 25 25 24 20 21 24 22 21 25 25 23 21 19 20 20 23 23 22 23 27 32 36 37 37 38 33 33 42 39 39 39 39 41 41 40 37 36 35 35 35 33 32
21 21 21 21 19 26 23 21 23 22 20 18 18 17 19 16 18 18 17 19 19 24 32 36 37 35 33 33 34 37 41 40 38 38 38 39 38 37 37 35 34 33 33 32
21 22 22 21 20 20 20 20 16 13 11 11 13 13 13 14 14 12 14 17 20 22 33 35 35 33 33 33 36 37 38 39 39 38 37 37 37 37 37 36 35 34 33 32
19 19 20 21 18 13 12 12 12 11 12 12 13 14 15 16 16 15 16 19 20 22 26 33 36 34 31 34 37 38 38 38 37 39 37 36 36 35 35 35 34 34 34 34
13 12 13 12 12 12 12 12 13 15 16 17 17 17 18 18 16 18 20 20 22 27 30 32 32 35 33 33 36 38 39 38 36 37 38 37 36 35 34 34 33 35 35 34
Wind_Speed
8 8 13 12 10 13 14 14 16 14 11 13 17 19 19 20 16 16 15 18 6 2 3 7 7 6 4 3 6 10 12 9 11 11 10 12 15 15 15 14 14 16 17 19
11 13 11 6 6 8 10 14 17 14 6 11 19 23 27 26 23 17 13 7 6 5 5 5 8 9 6 4 1 5 9 10 13 13 13 13 14 14 15 14 14 15 16 16
12 10 5 3 9 10 13 13 15 16 19 21 26 19 16 5 3 5 4 7 5 3 5 6 8 9 8 7 3 1 4 6 8 5 4 1 1 2 11 13 10 13 13 14
8 2 7 11 13 10 17 9 11 17 20 20 22 33 19 14 16 14 8 5 3 6 6 7 7 9 8 8 6 3 3 6 6 6 9 11 12 10 1 1 3 8 4 6
2 6 10 13 15 11 17 14 16 20 22 25 21 20 20 8 14 13 13 10 8 6 4 5 5 5 6 6 4 2 2 4 7 9 11 12 11 9 7 10 11 8 7 6
18 11 9 14 14 12 16 21 24 25 23 20 20 12 9 6 11 18 12 8 6 7 6 3 3 2 2 2 1 2 5 6 8 12 15 18 20 20 18 16 15 16 16 13
16 16 19 10 16 16 15 16 15 12 15 23 14 9 16 13 7 6 11 8 5 3 2 3 1 2 4 6 6 7 10 11 13 14 14 15 17 18 21 19 15 13 12 12
21 18 6 12 15 15 15 13 15 22 20 26 27 18 10 8 9 10 9 9 7 6 4 4 5 6 11 11 13 13 14 15 15 16 15 15 17 15 14 14 13 14 13 12
13 15 5 7 13 10 11 16 17 24 26 29 19 24 15 14 10 8 11 10 7 5 7 9 14 18 22 21 17 15 17 17 14 14 13 15 15 15 15 16 16 13 7 8
10 24 13 15 6 18 22 20 14 13 12 18 18 21 17 8 12 11 5 7 8 9 14 20 24 22 21 22 22 11 15 19 17 16 15 16 16 18 14 8 13 14 13 13
14 14 22 11 14 19 18 21 21 23 24 30 32 21 5 6 7 2 3 4 11 19 26 26 23 21 20 20 16 17 16 18 17 19 16 12 7 6 11 12 11 10 14 19
11 10 25 27 23 22 21 25 24 25 23 27 24 44 15 13 6 7 10 16 26 23 21 22 21 20 20 17 14 19 16 17 15 17 19 10 10 10 10 14 14 15 15 12
9 10 13 10 15 21 23 24 25 26 27 39 30 33 3 6 5 18 26 27 25 24 22 22 21 18 14 13 9 11 11 12 14 14 16 13 15 19 17 19 19 18 17 16
5 17 19 26 13 5 12 19 25 28 31 31 36 36 28 31 27 29 27 26 26 25 24 24 22 18 7 10 10 9 9 9 11 13 16 16 16 16 19 19 18 23 24 22
10 16 25 35 30 25 28 28 26 27 30 30 28 30 25 28 31 27 26 25 23 24 25 27 23 16 10 8 8 10 8 11 11 13 14 15 15 15 13 16 17 16 19 22
9 13 17 34 27 28 31 30 29 33 32 33 33 41 31 33 28 26 21 21 23 25 27 22 21 11 8 9 9 11 13 12 12 12 14 14 13 15 15 15 18 19 20 20
12 12 7 29 19 22 28 31 36 36 36 34 36 35 29 23 21 20 21 23 26 22 20 22 19 11 9 11 11 14 15 15 14 14 14 14 13 11 15 16 17 18 21 22
11 16 7 12 8 19 19 16 13 21 27 27 26 25 24 22 17 18 18 26 16 19 21 22 21 15 14 9 11 11 14 15 14 14 12 10 10 11 9 13 16 17 19 19
17 15 8 10 20 25 20 11 15 12 19 17 20 19 16 14 19 19 17 10 14 19 22 21 21 22 17 10 9 11 14 15 16 13 9 8 8 9 9 9 8 9 14 17
19 20 14 11 10 15 5 10 4 2 20 17 13 12 12 14 21 20 12 15 20 19 19 23 22 24 24 11 6 10 10 12 12 10 7 8 5 6 6 5 7 9 11 13
26 14 29 25 13 11 14 14 6 8 7 4 3 8 12 17 19 21 13 18 16 17 19 19 22 25 25 9 4 4 6 7 8 9 6 5 3 4 5 8 10 12 13 16
20 16 15 19 14 19 9 9 11 2 1 6 11 15 19 18 21 21 21 22 21 16 18 17 19 26 28 9 3 1 6 6 4 3 4 1 3 4 7 10 10 11 12 14
16 14 17 12 10 4 2 7 1 6 15 19 24 24 22 24 25 23 25 22 23 15 15 14 18 28 19 6 4 4 3 1 1 4 5 5 6 3 8 9 10 10 11 12
15 9 10 7 16 16 13 14 15 16 20 21 20 22 21 22 23 26 23 23 21 16 11 11 21 28 22 6 5 2 4 5 4 5 7 6 7 4 5 8 9 10 12 12
10 10 11 18 20 20 20 20 19 16 15 17 20 21 21 22 24 23 23 22 22 21 14 13 19 26 16 6 8 8 7 6 4 3 5 7 8 7 4 3 6 8 8 11
13 14 17 16 12 16 18 15 14 17 18 21 21 22 22 22 23 22 23 22 21 22 16 16 15 22 20 10 10 8 7 7 5 4 5 7 8 8 8 7 5 3 6 9
Wind_Direction
258 270 251 294 320 309 297 284 281 284 294 303 276 277 273 272 267 255 245 250 138 243 87 45 36 22 341 277 244 172 195 195 189 184 184 218 222 215 206 212 209 198 203 201
233 246 270 320 292 280 277 282 284 296 280 274 293 286 282 265 257 264 258 137 159 189 115 81 63 57 53 40 223 205 187 209 190 188 213 221 228 223 212 198 198 205 203 200
257 5 353 279 300 282 275 276 295 300 307 285 276 286 267 77 164 110 100 101 147 127 102 82 65 56 57 55 33 112 231 202 170 186 162 155 337 289 223 208 186 197 203 200
255 284 248 257 269 269 283 341 291 291 296 291 319 293 277 273 218 155 140 154 136 116 94 68 59 55 54 48 48 75 136 173 177 160 174 199 210 202 233 274 106 131 192 171
1 254 260 265 280 302 281 313 289 289 285 289 278 269 260 204 220 190 157 163 161 130 81 73 67 48 57 55 63 88 182 215 215 203 181 173 170 156 139 127 126 141 150 139
268 280 272 271 286 276 284 292 280 271 265 270 279 270 277 268 206 143 133 158 151 157 161 135 68 34 43 23 332 218 219 227 219 209 196 193 186 172 168 177 181 184 179 183
298 248 235 243 268 260 241 285 295 282 255 265 283 267 267 283 166 148 158 169 173 141 161 182 190 272 298 287 264 240 232 229 218 222 222 217 214 204 200 197 201 192 190 196
283 293 280 203 237 276 286 262 266 290 292 294 308 280 322 83 129 162 173 169 185 189 189 261 279 281 285 280 282 274 264 251 221 217 220 219 217 209 218 211 212 201 202 202
303 281 92 223 251 239 281 241 269 279 276 279 271 267 242 148 159 183 182 186 208 241 269 287 301 303 309 304 257 256 272 267 245 231 230 221 218 212 205 213 206 208 172 127
262 287 270 313 209 248 254 270 253 234 273 266 268 283 305 162 194 181 207 220 233 271 295 293 306 307 303 302 296 248 262 262 251 239 237 236 215 202 218 171 181 170 157 159
255 265 267 266 238 265 246 234 251 264 266 272 281 270 81 17 3 359 227 249 279 298 312 311 310 310 305 300 288 285 246 251 253 245 249 261 296 176 166 175 193 201 176 169
267 258 263 261 269 265 265 264 255 240 251 249 260 268 292 280 265 290 291 298 307 307 307 305 308 310 304 306 291 287 266 255 246 252 259 237 165 178 212 214 177 176 179 174
211 231 269 270 246 246 249 248 254 261 267 260 258 262 91 110 237 293 302 306 304 301 303 305 306 302 302 301 290 292 293 288 283 258 251 242 212 196 206 217 178 171 164 173
266 238 228 253 279 244 269 256 249 252 249 259 251 267 265 279 298 297 298 305 305 301 297 300 302 296 285 284 280 272 283 286 286 278 267 257 249 234 217 211 197 173 171 180
203 241 239 255 262 260 263 255 251 253 250 245 263 267 278 288 284 295 301 299 296 301 306 306 301 296 291 269 277 274 270 277 268 276 274 265 248 246 225 205 196 193 186 179
206 243 247 260 257 257 263 255 252 246 248 254 260 266 265 269 280 288 293 303 301 310 300 304 294 286 280 275 282 294 283 281 277 271 272 268 251 233 223 207 196 194 190 184
197 217 217 261 259 254 257 251 249 251 248 246 250 257 267 280 284 295 303 301 302 305 323 335 322 291 284 291 306 296 303 294 278 266 268 270 271 245 205 204 202 200 193 183
191 201 218 261 251 247 256 245 260 245 247 249 257 261 269 277 300 294 305 298 325 324 319 310 301 291 282 290 297 310 311 305 291 276 274 278 273 262 233 202 201 201 182 186
196 188 219 224 227 253 261 219 224 224 249 251 259 265 274 285 285 283 277 351 328 315 294 295 300 298 277 279 307 308 308 321 312 304 289 302 280 259 237 218 193 200 172 175
193 210 207 205 236 249 116 70 86 51 261 261 232 248 265 276 274 282 342 330 315 316 304 301 298 300 272 271 301 304 331 314 304 331 319 282 258 240 210 186 177 156 153 157
196 200 222 228 242 253 263 152 137 230 288 82 225 249 266 273 281 302 298 281 294 299 308 302 296 291 260 266 285 316 323 300 300 294 288 255 242 188 172 134 136 142 141 142
190 196 205 225 240 251 167 150 216 288 0 259 265 268 272 284 289 290 288 291 291 288 305 295 304 297 288 261 278 197 295 302 303 329 332 276 161 141 144 142 149 147 151 152
209 205 213 208 231 133 187 244 198 265 273 279 282 284 295 291 283 286 283 285 290 291 299 288 295 287 266 237 254 230 223 203 120 108 66 68 92 107 155 162 153 150 158 161
223 235 228 236 243 245 242 253 282 296 283 285 288 291 289 288 283 282 288 290 292 291 277 305 300 291 265 204 210 196 155 172 165 130 137 132 110 93 111 131 151 160 170 167
203 190 226 248 261 277 277 280 284 290 290 286 286 285 284 287 286 289 287 288 290 285 263 260 280 285 265 224 212 193 192 190 182 157 155 152 146 155 155 145 171 180 186 178
228 228 224 246 266 274 280 286 298 296 289 287 288 289 287 283 283 289 290 292 301 299 294 260 271 281 263 226 223 210 206 214 216 190 177 173 162 165 174 184 180 170 185 185